Location: Finkenwalde
(53.3770°N, 14.6418°E)
Time: 13:11:45
(UTC+00:00)

ATLAS 2AS CENTAUR R/B - Visible Passes

Search period start: 25 September 2023 00:00
Search period end: 05 October 2023 00:00
Orbit: 995 x 1216 km, 63.7° (Epoch: 19 August)

Date Brightness Start Highest point End Pass type
(mag) Time Alt. Az. Time Alt. Az. Time Alt. Az.
25 Sep 5.0 00:41:21 11° SE 00:44:29 14° ESE 00:47:54 10° ENE visible
25 Sep 3.4 02:28:49 20° SSW 02:34:00 53° SE 02:40:58 10° NE visible
25 Sep 3.1 04:17:35 10° WSW 04:24:59 61° NNW 04:32:03 10° NE visible
26 Sep 3.9 01:45:48 25° SSE 01:49:18 38° ESE 01:55:51 10° NE visible
26 Sep 2.9 03:33:16 14° SW 03:39:54 76° NW 03:47:05 10° NE visible
27 Sep 4.3 01:02:43 24° SE 01:04:43 27° ESE 01:10:34 10° ENE visible
27 Sep 2.9 02:50:11 25° SW 02:54:54 84° SE 03:02:08 10° NE visible
28 Sep 4.7 00:19:35 18° ESE 00:20:16 18° ESE 00:24:52 10° ENE visible
28 Sep 3.1 02:07:02 38° SSW 02:10:02 64° SE 02:17:09 10° NE visible
28 Sep 3.2 03:54:29 12° WSW 04:01:15 54° NNW 04:08:13 10° NE visible
28 Sep 5.1 23:36:24 11° E 23:36:24 11° E 23:37:52 10° E visible
29 Sep 3.4 01:23:51 42° SSE 01:25:16 46° ESE 01:32:06 10° NE visible
29 Sep 2.9 03:11:17 24° WSW 03:16:06 67° NW 03:23:14 10° NE visible
30 Sep 3.9 00:40:37 33° ESE 00:40:38 33° ESE 00:46:56 10° ENE visible
30 Sep 2.8 02:28:03 40° SW 02:31:03 84° NW 02:38:16 10° NE visible
30 Sep 3.5 04:15:53 10° W 04:22:51 42° NNW 04:29:30 10° NE visible
30 Sep 4.5 23:57:20 22° E 23:57:20 22° E 00:01:30 10° ENE visible
01 Oct 2.8 01:44:46 61° SSW 01:46:07 75° SE 01:53:18 10° NE visible
01 Oct 3.3 03:32:12 18° W 03:37:33 49° NNW 03:44:23 10° NE visible
01 Oct 5.0 23:14:01 13° E 23:14:01 13° E 23:15:30 10° ENE visible
02 Oct 3.2 01:01:27 56° ESE 01:01:27 56° ESE 01:08:18 10° NE visible
02 Oct 3.1 02:48:53 32° W 02:52:21 59° NNW 02:59:22 10° NE visible
03 Oct 3.9 00:18:07 36° E 00:18:07 36° E 00:23:13 10° NE visible
03 Oct 2.8 02:05:33 55° WSW 02:07:14 74° NW 02:14:24 10° NE visible
03 Oct 3.6 03:52:59 12° W 03:59:12 40° NNW 04:05:45 10° NE visible
03 Oct 4.5 23:34:44 22° E 23:34:44 22° E 23:37:57 10° ENE visible
04 Oct 2.7 01:22:10 87° SSE 01:22:14 87° SE 01:29:27 10° NE visible
04 Oct 3.4 03:09:36 23° W 03:13:53 45° NNW 03:20:36 10° NE visible
04 Oct 5.0 22:51:21 13° ENE 22:51:21 13° ENE 22:52:21 10° ENE visible
